Location: Bergnershof
(48.9468°N, 10.9431°E)
Time: 04:58:01
(UTC+00:00)

GP-B - Pass Details

Date: 03 March 2021
Orbit: 631 x 635 km, 89.8° (Epoch: 11 April)

Event Time Altitude Azimuth Distance (km) Brightness Sun altitude
Rises 17:45:24 0° 149° (SSE) 2,921 6.2 -7.8°
Reaches altitude 10° 17:47:48 10° 139° (SE) 2,018 5.3 -8.2°
Maximum altitude 17:51:40 30° 78° (ENE) 1,141 3.9 -8.8°
Drops below altitude 10° 17:55:33 10° 18° (NNE) 2,033 5.5 -9.4°
Sets 17:57:59 0° 8° (N) 2,946 6.5 -9.8°
